GFSFLT1_500_rhum_246.txt.gz
RH
2 2 3 4 5 23 14 22 94 12 10 62 65 67 65 85 84 77 69 59 77 91 90 87 91 87 73 65 77 94 84 82
2 2 2 2 3 4 29 11 75 92 6 36 77 62 63 79 85 82 75 65 73 84 86 82 84 93 72 60 62 92 86 76
1 1 1 2 2 4 37 55 76 67 48 15 67 98 74 80 78 100 92 75 71 89 76 79 88 95 96 89 64 71 84 93
12 9 8 6 2 2 3 64 71 56 54 13 66 98 96 90 87 90 98 86 76 98 74 77 86 87 97 93 83 95 78 82
100 97 81 50 32 12 8 92 69 95 86 21 12 78 89 88 88 99 94 87 85 80 86 82 94 90 97 66 90 85 60 55
92 98 87 100 100 100 42 71 70 30 43 98 4 41 85 97 91 78 96 89 84 72 81 85 78 66 88 83 98 78 78 76
55 43 46 44 64 90 79 70 57 97 37 53 16 7 57 92 81 96 80 85 73 74 78 91 80 81 42 60 60 61 58 62
62 79 78 62 57 71 73 94 74 63 71 42 58 21 31 64 82 79 98 96 73 79 76 90 75 78 80 49 59 62 73 83
76 64 53 47 58 97 100 97 80 60 53 44 51 36 25 70 79 78 83 91 95 74 75 82 89 77 75 80 74 75 85 90
89 94 98 95 47 64 90 100 60 78 27 16 96 100 58 67 54 92 90 75 87 98 93 75 82 80 84 88 87 88 85 80
100 100 100 100 76 74 68 99 96 61 41 16 23 66 72 71 48 59 87 86 97 96 79 100 68 69 83 92 85 82 80 77
100 100 100 100 100 100 99 98 98 56 50 51 34 85 48 91 75 72 82 97 96 100 96 100 78 93 89 86 73 76 68 68
100 100 100 100 99 100 92 76 75 60 87 84 76 52 82 73 97 79 91 97 95 95 95 96 84 77 84 68 59 66 66 58
100 100 100 100 100 100 100 93 49 60 55 90 97 100 64 52 71 72 92 95 96 93 98 97 96 82 71 62 58 58 58 62
100 100 100 100 100 100 100 99 51 47 60 71 91 93 54 38 44 44 52 85 89 90 94 95 94 96 72 51 56 55 53 57
98 99 100 100 100 100 100 100 53 26 18 54 66 81 43 40 28 28 52 91 87 84 82 92 89 85 98 87 53 61 54 54
54 89 99 100 100 100 100 100 100 100 85 54 49 33 27 15 12 24 40 84 83 77 84 85 75 79 99 97 71 62 62 77
34 32 50 92 97 100 100 100 100 100 100 100 98 52 40 20 20 22 60 81 94 74 76 82 79 74 85 92 97 64 70 97
32 28 25 29 44 76 91 99 100 98 98 100 99 71 71 64 66 90 98 81 79 75 97 94 92 78 90 96 90 87 89 96

GFSFLT1_500_rhum_252.txt.gz
RH
3 4 7 5 4 5 5 4 4 5 6 6 20 94 63 72 71 62 64 58 48 47 54 66 71 73 68 66 86 87 66 64
3 6 10 12 10 12 4 7 3 3 5 5 6 45 97 92 83 75 63 68 54 48 53 63 71 66 70 67 76 95 74 63
4 6 7 7 9 11 20 18 22 16 7 6 4 10 62 99 93 96 85 72 51 49 54 63 70 75 71 70 76 88 85 62
18 30 29 21 13 12 12 48 90 100 58 21 8 5 10 62 98 94 96 79 65 52 55 64 74 78 72 69 74 76 84 64
56 43 34 29 32 30 26 18 80 100 98 88 47 11 4 31 69 97 99 98 87 69 58 68 78 82 80 74 74 77 83 64
50 47 41 45 43 30 26 33 28 35 95 90 90 79 20 14 86 92 92 87 96 73 79 70 74 79 80 71 70 76 84 87
45 40 37 47 46 30 29 34 34 35 52 67 91 72 86 12 72 60 82 92 97 92 76 76 82 86 85 77 66 83 78 76
35 32 35 50 48 45 37 43 41 51 49 47 56 82 99 39 73 71 97 95 79 93 78 58 72 81 81 81 68 86 73 69
53 44 58 50 50 67 47 40 53 49 72 57 38 47 98 91 69 67 46 96 96 96 96 78 59 98 90 72 67 80 81 71
96 96 86 100 66 51 76 87 83 71 61 61 59 75 45 97 58 59 27 86 94 84 98 98 97 86 100 87 78 76 75 67
99 95 99 100 100 86 68 86 100 95 72 66 58 57 64 68 86 27 65 94 95 91 65 96 97 95 99 80 99 84 77 64
70 73 82 84 94 100 99 98 100 100 100 56 68 66 70 36 96 54 82 96 74 54 66 98 93 96 96 96 98 89 86 80
56 37 27 28 67 84 100 100 100 100 100 50 47 50 50 56 97 99 68 72 100 95 88 96 91 87 99 94 89 98 79 88
23 20 18 22 38 42 90 100 100 100 100 84 61 58 45 48 92 95 73 82 88 59 80 96 96 95 96 96 97 96 86 100
22 19 18 17 20 32 41 97 100 100 100 100 100 100 70 54 85 59 93 94 90 81 85 97 96 96 97 97 96 96 91 98
22 18 15 14 14 17 16 62 98 100 100 100 100 98 100 100 58 60 96 97 94 96 98 97 97 93 98 96 96 96 94 97
16 12 12 11 10 12 13 11 66 94 100 100 100 100 97 93 90 99 97 100 95 98 95 96 97 95 96 93 97 97 96 96
10 10 10 8 9 9 9 10 8 52 96 100 100 100 90 94 93 96 97 99 96 91 98 94 97 98 87 95 84 96 88 96
7 7 7 7 8 8 8 8 8 8 29 81 95 100 90 75 69 72 78 92 78 63 90 96 94 92 97 96 93 90 92 96

GFSFLT1_500_rhum_258.txt.gz
RH
10 13 15 16 12 8 8 6 6 9 12 16 21 20 18 18 28 81 91 97 96 95 95 96 100 50 52 82 86 77 91 96
3 3 2 2 2 4 4 8 11 7 5 7 21 20 20 19 18 21 56 93 94 97 97 96 97 88 46 62 97 82 80 86
12 12 14 15 10 5 3 2 2 4 8 7 6 12 13 18 18 17 23 39 95 97 99 92 93 97 83 71 83 95 73 88
43 41 45 43 44 41 35 24 7 4 2 3 3 3 7 13 12 14 16 20 44 96 94 81 93 94 96 73 86 91 86 80
50 50 53 51 46 42 36 27 23 23 16 9 2 2 3 4 9 8 8 15 19 69 99 97 75 88 99 87 79 89 91 78
64 67 66 51 41 35 34 34 32 26 22 18 17 13 3 3 3 4 7 8 14 28 79 92 96 84 91 97 87 76 93 86
85 71 76 84 73 79 59 40 39 31 30 27 20 17 13 6 3 3 4 6 7 17 45 77 97 97 94 96 86 78 90 93
79 77 68 77 89 47 66 66 46 34 35 36 25 25 14 12 8 3 3 3 9 8 15 35 66 93 96 98 75 65 80 92
85 84 56 39 28 20 19 28 56 37 51 53 31 22 19 15 14 12 8 3 4 8 10 20 51 94 96 96 96 73 67 91
74 81 66 34 28 22 21 16 21 52 46 39 54 44 26 25 24 18 15 14 12 4 5 6 27 79 93 96 96 97 80 74
45 44 46 44 32 25 20 17 14 26 58 54 45 48 34 39 43 35 22 18 23 17 4 4 6 33 58 93 96 96 92 72
54 49 42 34 28 24 22 19 16 13 16 88 55 48 46 53 60 67 44 33 28 22 18 6 3 7 46 94 95 97 96 80
46 42 40 36 31 27 21 17 14 13 9 34 98 60 72 60 90 58 40 44 39 34 32 18 6 2 18 73 96 95 93 96
41 27 18 14 12 12 12 11 11 9 9 12 93 97 78 99 84 100 94 78 92 38 45 46 30 19 7 44 76 96 98 97
12 13 14 14 11 8 7 7 8 7 8 8 62 99 91 94 95 94 98 98 67 45 49 68 55 42 11 19 30 98 95 97
17 17 17 17 17 17 12 8 6 6 7 6 26 93 100 98 100 100 97 97 43 100 50 99 85 34 35 48 20 73 79 94
32 29 25 21 20 20 16 14 10 7 6 6 7 64 99 100 100 96 81 88 63 38 46 100 81 66 59 32 16 75 94 96
63 61 46 35 29 27 25 18 16 15 12 8 7 21 65 100 100 100 100 99 98 67 47 93 96 50 51 47 65 87 97 97
51 57 64 61 53 45 37 32 25 20 18 14 10 14 41 50 98 100 100 100 100 100 100 100 99 80 50 69 66 81 94 93

GFSFLT1_500_rhum_264.txt.gz
RH
7 10 10 9 13 11 8 5 4 2 2 9 23 18 10 19 32 31 32 39 49 65 95 97 98 95 92 97 81 70 84 81
33 45 42 40 39 35 29 25 22 14 6 3 2 7 24 21 10 12 22 23 22 50 76 96 88 98 96 97 93 78 80 83
58 50 50 54 52 54 50 47 47 35 30 19 7 2 2 10 26 23 11 12 17 17 43 88 82 96 95 92 91 92 95 86
70 82 93 89 92 93 78 62 58 56 52 37 28 18 5 2 2 14 26 21 9 10 15 50 97 94 96 94 90 92 95 95
99 99 94 96 81 83 74 75 53 28 52 60 50 28 23 17 5 2 3 19 21 8 8 17 63 96 87 94 94 95 88 96
85 91 77 76 85 76 60 34 48 51 21 36 50 37 27 17 18 17 8 3 8 20 12 7 12 63 92 94 96 92 95 87
75 74 66 73 82 73 64 66 65 41 54 30 23 46 41 25 20 19 20 19 9 4 18 12 9 9 54 96 94 96 98 95
74 74 71 71 71 64 58 50 44 52 64 32 19 18 30 28 20 20 20 20 21 19 5 11 13 13 8 38 93 96 96 98
48 74 69 71 70 60 44 42 36 31 30 39 30 22 26 21 26 18 18 20 19 21 20 5 8 18 18 10 49 92 97 96
23 40 52 67 62 47 38 31 30 27 24 24 21 16 26 23 22 30 23 18 19 20 23 15 10 6 13 21 9 27 88 96
39 27 22 24 23 17 14 12 12 12 18 20 20 15 12 18 16 25 31 33 31 30 21 19 13 10 8 12 23 12 11 82
32 44 50 47 38 30 27 21 17 13 9 8 11 12 11 10 12 19 29 29 28 25 25 28 24 14 10 9 9 13 9 14
22 27 34 42 50 52 51 40 32 19 12 8 7 7 8 7 8 12 36 31 24 16 18 21 19 26 17 11 11 8 7 6
14 19 26 34 38 39 46 51 47 37 22 16 11 9 7 6 6 8 34 36 29 27 26 38 52 24 25 16 14 12 8 7
6 9 16 27 33 35 38 42 53 51 40 26 19 13 10 8 7 6 14 58 52 47 49 56 62 61 27 24 16 14 11 12
10 7 6 10 25 38 44 43 50 55 48 36 25 19 17 12 8 6 10 53 72 69 54 62 75 70 55 32 27 17 11 12
13 13 12 8 6 15 37 49 54 54 51 43 34 25 22 16 12 9 9 39 90 81 66 76 83 99 61 43 32 24 17 17
16 15 16 14 13 7 8 33 50 56 55 50 43 35 30 22 16 12 11 20 95 100 84 74 87 99 99 76 40 29 24 18
17 17 18 17 16 15 8 9 39 55 59 54 50 42 35 32 21 14 13 12 56 100 92 65 67 91 99 78 44 33 26 22